Weather in Pervomaiske

Ukraine / Donetsk Region     47°59′46″N   38°47′13″E
temp.,
°C
wind,
m/s
gust,
m/s
humid.,
%
clouds,
%
prec.,
mm/h
press.,
hPa
HPBL,
m
12 may, wed
wed1200:00+6ese61095100 0.4 1014591
03:00+7ese61092100 0.5 1015792
06:00+7ese71194100 0.3 1016590
09:00+8se71091100 0.3 1016846
12:00+10sse6978100 0.4 10161233
15:00+13sse91070100 1.2 10161677
18:00+9se1392100 2.0 1016129
21:00+10s1293100 2.3 101634
13 may, thu
thu1300:00+10ne1193100 0.0 101517
03:00+10ene229329 0.1 101516
06:00+10ene22915 0.0 101538
09:00+16se45705 0.0 1014488
12:00+21sse45560 0.0 10141265
15:00+22se4450100 0.0 10131615
18:00+21ese4665100 0.0 1013417
21:00+16e348299 0.0 101456
14 may, fri
fri1400:00+15e34910 0.0 101367
03:00+14e38915 0.0 1013148
06:00+15e310915 0.0 1013265
09:00+21se6106187 0.0 1012511
12:00+25se6852100 0.0 1012795
15:00+27se674733 0.0 10121087
18:00+25se58625 0.0 1011489
21:00+19ese34866 0.0 101264
15 may, sat
sat1500:00+17se11896 0.0 101111
03:00+16w1192100 0.0 101111
06:00+18nw119173 1.9 101242
09:00+22wnw225940 1.9 1012466
12:00+25sw234481 0.0 10131162
15:00+26sw3440100 0.0 10131833
18:00+25ssw35531 0.0 1013226
21:00+18w22753 0.0 101316
16 may, sun
sun1600:00+17n22774 0.0 101312
03:00+16nne38774 0.0 1013113
06:00+16ne38825 0.0 1012158
09:00+23ene46625 0.0 1012490
12:00+27ene455219 0.0 10111355
15:00+28ene664554 0.0 10101449
18:00+25e595419 0.0 1009679
21:00+19ne412675 0.0 1009208